Карточка аэропорта URWA

Внимание!
Информация на этой странице в стадии наполнения.
Если вы не увидели какой-то информации, или заметили неточность - пожалуйста сообщите нам!
Спасибо!
Команда RU-STAFF
Название аэропортаАстрахань
Название аэропорта (англ.)Astrakhan
Превышение-65 ft. (-19.8 m.)
Координаты46°16.998', 48°0.38399999999996'
Высота перехода3000 ft
Эшелон переходаFL50
Коды ответчика1010-1017
Зона ОрВДРостов-на-Дону РПИ (URRV)
Данные METARURWA 230600Z 17002MPS CAVOK 32/15 Q1006 R27/010070 NOSIG RMK QFE756/1008
Проноз погоды (TAF)URWA 230500Z 2306/2315 22003G14MPS 9999 SCT040CB PROB40 TEMPO 2306/2309 -TSRA TEMPO 2309/2315 VRB06G20MPS 6000 -TSRA FEW007 BKN020CB
NOTAMshow/hide NOTAM
AWOS   TABLE

Информация о ВПП

ВПП Длина ВПП (м.) Покрытие Курс ВПП Частота ILS
093200Асфальтобетон89110.3
111950Трава113 
273200Асфальтобетон269110.5
291950Трава293 

Диспетчерские позиции

Позывной Наименование органа УВД Частота
URWA_TWRАстрахань-Вышка118.6
URWA_R_APPАстрахань-Круг120.6
URWA_APPАстрахань-Подход126.0



Спутниковое изображение